This demonstration page uses our WeatherBlox Daily Observations layout. Learn more.

39.92423, -83.80882

Hourly Observations for August 11, 2020

Temp ( °F °C ) Dew Point ( °F °C ) Humidity (%) Winds ( mph kmh ) Pressure ( in mb ) Visibility ( mi km ) Precip ( " mm )
12:56 am 00:56 Partly Cloudy 67 19.4 67 19.4 100 100 S 6 9 29.94 1014 10 16.0934 0 0
1:56 am 01:56 Partly Cloudy 67 19.4 67 19.4 100 100 S 3 6 29.88 1012 10 16.0934 0 0
2:56 am 02:56 Clear 66 18.9 66 18.9 100 100 SSE 3 6 29.88 1012 10 16.0934 0 0
3:56 am 03:56 Mostly Clear with Mist and Fog 65 18.3 65 18.3 100 100 Calm 29.91 1013 4 6.43736 0 0
4:20 am 04:20 Mostly Clear with Mist and Fog 64 18 64 18 100 100 Calm 29.91 1013 1.5 2.41401 0 0
4:31 am 04:31 Clear with Mist and Fog 64 18 64 18 100 100 Calm 29.92 1013 4 6.43736 0 0
4:56 am 04:56 Mostly Clear 66 18.9 66 18.9 100 100 W 7 11 29.95 1014 10 16.0934 0 0
5:10 am 05:10 Mostly Cloudy 66 19 66 19 100 100 W 6 9 29.96 1014 10 16.0934 0 0
5:19 am 05:19 Cloudy 66 19 66 19 100 100 W 7 11 29.96 1014 10 16.0934 0 0
5:45 am 05:45 Mostly Cloudy 66 19 66 19 100 100 Calm 29.96 1014 7 11.26538 0 0
5:56 am 05:56 Cloudy with Mist and Fog 66 18.9 66 18.9 100 100 SSW 3 6 29.96 1015 6 9.65604 0 0
6:56 am 06:56 Cloudy with Mist and Fog 67 19.4 67 19.4 100 100 WSW 8 13 29.97 1015 4 6.43736 0 0
7:56 am 07:56 Cloudy with Mist and Fog 68 20 68 20 100 100 W 8 13 29.99 1016 4 6.43736 0 0
8:22 am 08:22 Cloudy with Mist and Fog 68 20 68 20 100 100 W 7 11 29.98 1015 5 8.0467 0 0
8:56 am 08:56 Cloudy 69 20.6 69 20.6 100 100 W 8 13 30 1016 10 16.0934 0 0
9:12 am 09:12 Cloudy 70 21 70 21 100 100 W 9 15 29.99 1016 10 16.0934 0 0
9:56 am 09:56 Cloudy 70 21.1 70 21.1 100 100 WSW 7 11 30.01 1016 10 16.0934 0 0
10:37 am 10:37 Cloudy 72 22 72 22 100 100 W 8 13 29.99 1016 10 16.0934 0 0
10:56 am 10:56 Cloudy 72 22.2 70 21.1 94 94 W 8 13 30.01 1016 10 16.0934 0 0
11:33 am 11:33 Cloudy 73 23 70 21 89 89 WNW 7 11 29.99 1016 10 16.0934 0 0
11:56 am 11:56 Cloudy 75 23.9 70 21.1 84 84 WNW 8 13 30.02 1017 10 16.0934 0 0
12:56 pm 12:56 Mostly Cloudy 78 25.6 70 21.1 76 76 NW 7 11 30.01 1016 10 16.0934 0 0
1:56 pm 13:56 Partly Cloudy 79 26.1 71 21.7 77 77 VRB 5 7 30.01 1016 10 16.0934 0 0
2:24 pm 14:24 Mostly Cloudy 81 27 70 21 70 70 W 9 15 29.97 1015 10 16.0934 0 0
2:34 pm 14:34 Partly Cloudy 81 27 70 21 70 70 W 8 13 29.97 1015 10 16.0934 0 0
2:56 pm 14:56 Mostly Sunny 82 27.8 71 21.7 69 69 WSW 8 13 29.99 1016 10 16.0934 0 0
3:56 pm 15:56 Mostly Sunny 82 27.8 71 21.7 69 69 WSW 5 7 29.98 1015 10 16.0934 0 0
4:56 pm 16:56 Mostly Cloudy 83 28.3 71 21.7 67 67 W 7 11 29.97 1015 10 16.0934 0 0
5:56 pm 17:56 Mostly Sunny 84 28.9 72 22.2 67 67 WNW 7 11 29.97 1015 10 16.0934 0 0
6:56 pm 18:56 Mostly Cloudy 81 27.2 71 21.7 72 72 WNW 6 9 29.97 1015 10 16.0934 0 0
7:56 pm 19:56 Mostly Cloudy 80 26.7 71 21.7 74 74 NW 7 11 29.98 1015 10 16.0934 0 0
8:56 pm 20:56 Clear 75 23.9 72 22.2 90 90 NW 3 6 29.99 1016 10 16.0934 0 0
9:56 pm 21:56 Mostly Cloudy 72 22.2 72 22.2 100 100 N 3 6 30.01 1016 10 16.0934 0 0
10:56 pm 22:56 Cloudy 72 22.2 72 22.2 100 100 Calm 30.02 1017 10 16.0934 0 0
11:56 pm 23:56 Clear 70 21.1 70 21.1 100 100 Calm 30.02 1017 10 16.0934 0 0

Powered by AerisWeather